Погода в Пестово

Россия / Новгородская область     58°35′56″N   35°47′53″E
В апреле 2022 года жителям России запретили посещать сайт meteo.paraplan.net по решению Генеральной прокуратуры. Аудитория сайта уменьшилась в 10 раз. Владельцы сайта не видят смысла в поддержке погодного сервера в таких условиях. Сайт будет закрыт в октябре.
темп.,
°C
ветер,
м/с
пор.,
м/с
влажн.,
%
обл.,
%
осадки,
мм/ч
давл.,
гПа
погр.,
м
4 октября, вт
вт400:00+8юв6138481 0.1 10011125
03:00+7юв51488100 0.6 10021345
06:00+9юв71483100 0.3 10021243
09:00+10юв71382100 0.3 10031228
12:00+10юв61378100 0.1 10041559
15:00+6ююз4893100 0.8 1006561
18:00+6ююв4892100 1.8 1007957
21:00+6юв3792100 2.1 1008471
5 октября, ср
ср500:00+6вюв2596100 0.3 1008217
03:00+6св2495100 0.7 1007219
06:00+6св1297100 1.2 1008108
09:00+6юв1296100 2.0 1009180
12:00+6зюз1195100 0.4 1010233
15:00+6сз2594100 1.0 1012398
18:00+6зсз1492100 0.1 1013158
21:00+6зсз269284 0.2 1014237
6 октября, чт
чт600:00+4з239596 0.0 101582
03:00+3з22975 0.0 101541
06:00+2юз22960 0.0 101528
09:00+5ююз25890 0.0 1016198
12:00+9ю467686 0.0 1014484
15:00+8ю4119155 0.0 1012411
18:00+9ююз41194100 0.0 1011512
21:00+10ююз5139534 0.0 1009531
7 октября, пт
пт700:00+11зюз51493100 0.6 1009999
03:00+9з5138877 1.2 1011776
06:00+9з51387100 0.1 10131192
09:00+10з61382100 0.1 10131106
12:00+11з6137834 0.1 10151310
15:00+13з613705 0.3 10161424
18:00+10з5127727 0.0 10181010
21:00+9зюз3108946 0.0 1019467
8 октября, сб
сб800:00+8юз4129050 0.0 1019457
03:00+7юз412935 0.0 1019439
06:00+7юз41395100 0.0 1018445
09:00+9юз41386100 0.0 1018615
12:00+13юз5126952 0.0 1016927
15:00+13ююз51166100 0.0 10141076
18:00+11ююз61373100 0.0 1012866
21:00+10ююз61477100 0.0 1011914